| time (UTC) | temp F | wind direction | speed MPH | gust MPH | rain 1hr in | rain 24hr in | rain mn in | humidity % | barometer mb |
| 20260504003841 | 50 | 180 | 0.0 | 0.0 | 0.00 | 0.00 | 0.00 | 50 | 1013.6 |
| 20260504003342 | 51 | 180 | 0.0 | 0.0 | 0.00 | 0.00 | 0.00 | 50 | 1013.5 |
| 20260504002841 | 51 | 180 | 0.0 | 0.0 | 0.00 | 0.00 | 0.00 | 50 | 1013.5 |
| 20260504002342 | 52 | 180 | 0.0 | 0.0 | 0.00 | 0.00 | 0.00 | 49 | 1013.4 |
| 20260504001844 | 52 | 180 | 0.0 | 0.0 | 0.00 | 0.00 | 0.00 | 48 | 1013.4 |
| 20260504001342 | 53 | 180 | 0.0 | 0.0 | 0.00 | 0.00 | 0.00 | 48 | 1013.3 |
| 20260504000346 | 54 | 180 | 0.0 | 0.0 | 0.00 | 0.00 | 0.00 | 46 | 1013.3 |
| 20260503235844 | 54 | 180 | 0.0 | 0.0 | 0.00 | 0.00 | 0.00 | 44 | 1013.1 |
| 20260503235345 | 55 | 180 | 0.0 | 0.0 | 0.00 | 0.00 | 0.00 | 43 | 1013.1 |
| 20260503234846 | 55 | 180 | 0.0 | 0.0 | 0.00 | 0.00 | 0.00 | 42 | 1013.0 |
| 20260503234345 | 55 | 180 | 0.0 | 0.0 | 0.00 | 0.00 | 0.00 | 42 | 1012.9 |
| 20260503233846 | 56 | 180 | 0.0 | 0.0 | 0.00 | 0.00 | 0.00 | 41 | 1012.9 |
| 20260503233348 | 56 | 180 | 0.0 | 0.0 | 0.00 | 0.00 | 0.00 | 40 | 1012.9 |
| 20260503232845 | 56 | 180 | 0.0 | 0.0 | 0.00 | 0.00 | 0.00 | 39 | 1012.8 |
| 20260503232347 | 57 | 180 | 0.0 | 0.0 | 0.00 | 0.00 | 0.00 | 39 | 1012.7 |
| 20260503231848 | 57 | 180 | 0.0 | 0.0 | 0.00 | 0.00 | 0.00 | 38 | 1012.7 |
| 20260503231347 | 57 | 180 | 0.0 | 0.0 | 0.00 | 0.00 | 0.00 | 37 | 1012.8 |
| 20260503230848 | 57 | 180 | 1.0 | 0.0 | 0.00 | 0.00 | 0.00 | 37 | 1012.7 |
| 20260503230349 | 58 | 34 | 0.0 | 0.0 | 0.00 | 0.00 | 0.00 | 37 | 1012.8 |
| 20260503225848 | 58 | 34 | 0.0 | 0.0 | 0.00 | 0.00 | 0.00 | 35 | 1012.7 |
| 20260503225350 | 58 | 184 | 0.0 | 0.0 | 0.00 | 0.00 | 0.00 | 35 | 1012.7 |
| 20260503224851 | 58 | 41 | 1.0 | 0.0 | 0.00 | 0.00 | 0.00 | 35 | 1012.8 |
| 20260503224350 | 58 | 200 | 0.0 | 3.0 | 0.00 | 0.00 | 0.00 | 35 | 1012.7 |
| 20260503223851 | 59 | 62 | 0.0 | 0.0 | 0.00 | 0.00 | 0.00 | 34 | 1012.7 |
| 20260503223352 | 59 | 132 | 2.0 | 1.0 | 0.00 | 0.00 | 0.00 | 33 | 1012.6 |
| 20260503222851 | 59 | 245 | 3.0 | 0.0 | 0.00 | 0.00 | 0.00 | 34 | 1012.6 |
| 20260503222353 | 59 | 125 | 0.0 | 0.0 | 0.00 | 0.00 | 0.00 | 33 | 1012.6 |
| 20260503221854 | 60 | 260 | 1.0 | 1.0 | 0.00 | 0.00 | 0.00 | 33 | 1012.6 |
| 20260503221353 | 60 | 253 | 2.0 | 2.0 | 0.00 | 0.00 | 0.00 | 33 | 1012.6 |
| 20260503220854 | 60 | 51 | 1.0 | 0.0 | 0.00 | 0.00 | 0.00 | 31 | 1012.5 |
| 20260503220356 | 60 | 273 | 1.0 | 0.0 | 0.00 | 0.00 | 0.00 | 32 | 1012.4 |
| 20260503215854 | 60 | 243 | 2.0 | 4.0 | 0.00 | 0.00 | 0.00 | 31 | 1012.4 |
| 20260503215356 | 60 | 79 | 0.0 | 0.0 | 0.00 | 0.00 | 0.00 | 32 | 1012.4 |
| 20260503214857 | 60 | 238 | 2.0 | 0.0 | 0.00 | 0.00 | 0.00 | 31 | 1012.4 |
| 20260503214356 | 61 | 150 | 3.0 | 1.0 | 0.00 | 0.00 | 0.00 | 29 | 1012.3 |
| 20260503213857 | 61 | 287 | 2.0 | 3.0 | 0.00 | 0.00 | 0.00 | 31 | 1012.4 |
| 20260503213359 | 61 | 290 | 1.0 | 3.0 | 0.00 | 0.00 | 0.00 | 30 | 1012.2 |
| 20260503212857 | 62 | 219 | 0.0 | 3.0 | 0.00 | 0.00 | 0.00 | 30 | 1012.3 |
| 20260503212358 | 62 | 330 | 1.0 | 0.0 | 0.00 | 0.00 | 0.00 | 29 | 1012.3 |
| 20260503211900 | 63 | 294 | 0.0 | 1.0 | 0.00 | 0.00 | 0.00 | 29 | 1012.2 |
| 20260503211359 | 63 | 222 | 4.0 | 0.0 | 0.00 | 0.00 | 0.00 | 28 | 1012.2 |
| 20260503210900 | 63 | 215 | 1.0 | 1.0 | 0.00 | 0.00 | 0.00 | 29 | 1012.3 |
| 20260503210401 | 63 | 297 | 2.0 | 2.0 | 0.00 | 0.00 | 0.00 | 29 | 1012.3 |
| 20260503205900 | 63 | 194 | 3.0 | 1.0 | 0.00 | 0.00 | 0.00 | 29 | 1012.2 |
| 20260503205401 | 63 | 269 | 4.0 | 1.0 | 0.00 | 0.00 | 0.00 | 27 | 1012.2 |
| 20260503204903 | 63 | 259 | 2.0 | 2.0 | 0.00 | 0.00 | 0.00 | 28 | 1012.2 |
| 20260503204401 | 63 | 245 | 1.0 | 2.0 | 0.00 | 0.00 | 0.00 | 29 | 1012.1 |
| 20260503203903 | 63 | 194 | 3.0 | 1.0 | 0.00 | 0.00 | 0.00 | 29 | 1012.1 |
| 20260503203404 | 63 | 105 | 1.0 | 1.0 | 0.00 | 0.00 | 0.00 | 30 | 1012.1 |
| 20260503202903 | 63 | 293 | 3.0 | 3.0 | 0.00 | 0.00 | 0.00 | 30 | 1012.1 |
| 20260503202404 | 63 | 169 | 2.0 | 3.0 | 0.00 | 0.00 | 0.00 | 28 | 1012.1 |
| 20260503201905 | 63 | 260 | 1.0 | 0.0 | 0.00 | 0.00 | 0.00 | 30 | 1012.1 |
| 20260503201404 | 63 | 276 | 3.0 | 1.0 | 0.00 | 0.00 | 0.00 | 29 | 1012.0 |
| 20260503200905 | 63 | 280 | 1.0 | 0.0 | 0.00 | 0.00 | 0.00 | 30 | 1012.2 |
| 20260503200407 | 63 | 218 | 0.0 | 0.0 | 0.00 | 0.00 | 0.00 | 32 | 1012.2 |
| 20260503195905 | 62 | 176 | 4.0 | 3.0 | 0.00 | 0.00 | 0.00 | 32 | 1012.4 |
| 20260503195407 | 62 | 326 | 3.0 | 3.0 | 0.00 | 0.00 | 0.00 | 33 | 1012.3 |
| 20260503194908 | 63 | 94 | 2.0 | 2.0 | 0.00 | 0.00 | 0.00 | 30 | 1012.4 |
| 20260503194407 | 63 | 158 | 0.0 | 0.0 | 0.00 | 0.00 | 0.00 | 32 | 1012.4 |
| 20260503193908 | 63 | 193 | 1.0 | 3.0 | 0.00 | 0.00 | 0.00 | 31 | 1012.5 |
| 20260503193410 | 63 | 270 | 2.0 | 6.0 | 0.00 | 0.00 | 0.00 | 33 | 1012.5 |
| 20260503192908 | 62 | 186 | 1.0 | 6.0 | 0.00 | 0.00 | 0.00 | 34 | 1012.6 |
| 20260503192410 | 62 | 329 | 3.0 | 1.0 | 0.00 | 0.00 | 0.00 | 34 | 1012.6 |
| 20260503191911 | 61 | 257 | 3.0 | 2.0 | 0.00 | 0.00 | 0.00 | 35 | 1012.6 |
| 20260503191410 | 61 | 354 | 1.0 | 2.0 | 0.00 | 0.00 | 0.00 | 33 | 1012.7 |
| 20260503190911 | 61 | 246 | 2.0 | 1.0 | 0.00 | 0.00 | 0.00 | 37 | 1012.8 |
| 20260503190412 | 61 | 308 | 3.0 | 2.0 | 0.00 | 0.00 | 0.00 | 34 | 1012.7 |
| 20260503185911 | 61 | 145 | 2.0 | 6.0 | 0.00 | 0.00 | 0.00 | 33 | 1012.7 |
| 20260503185412 | 61 | 42 | 1.0 | 0.0 | 0.00 | 0.00 | 0.00 | 36 | 1012.7 |
| 20260503184914 | 61 | 89 | 4.0 | 3.0 | 0.00 | 0.00 | 0.00 | 35 | 1012.8 |
| 20260503184412 | 61 | 300 | 2.0 | 1.0 | 0.00 | 0.00 | 0.00 | 35 | 1012.9 |
| 20260503183914 | 61 | 221 | 4.0 | 4.0 | 0.00 | 0.00 | 0.00 | 35 | 1013.0 |
| 20260503183415 | 60 | 287 | 4.0 | 2.0 | 0.00 | 0.00 | 0.00 | 34 | 1012.9 |
| 20260503182914 | 60 | 201 | 4.0 | 2.0 | 0.00 | 0.00 | 0.00 | 37 | 1013.0 |
| 20260503182415 | 59 | 264 | 1.0 | 0.0 | 0.00 | 0.00 | 0.00 | 36 | 1013.1 |
| 20260503181917 | 59 | 263 | 4.0 | 4.0 | 0.00 | 0.00 | 0.00 | 36 | 1013.1 |
| 20260503181415 | 59 | 82 | 3.0 | 1.0 | 0.00 | 0.00 | 0.00 | 36 | 1013.1 |
| 20260503180916 | 59 | 46 | 1.0 | 2.0 | 0.00 | 0.00 | 0.00 | 38 | 1013.0 |
| 20260503180418 | 59 | 325 | 2.0 | 2.0 | 0.00 | 0.00 | 0.00 | 38 | 1013.1 |
| 20260503175916 | 58 | 52 | 2.0 | 3.0 | 0.00 | 0.00 | 0.00 | 39 | 1013.2 |
| 20260503175418 | 58 | 242 | 2.0 | 0.0 | 0.00 | 0.00 | 0.00 | 39 | 1013.2 |
| 20260503174919 | 58 | 58 | 1.0 | 0.0 | 0.00 | 0.00 | 0.00 | 39 | 1013.1 |
| 20260503174418 | 58 | 27 | 2.0 | 2.0 | 0.00 | 0.00 | 0.00 | 38 | 1013.2 |
| 20260503173919 | 59 | 1 | 0.0 | 0.0 | 0.00 | 0.00 | 0.00 | 38 | 1013.3 |
| 20260503173421 | 60 | 305 | 1.0 | 2.0 | 0.00 | 0.00 | 0.00 | 35 | 1013.2 |
| 20260503172919 | 60 | 222 | 3.0 | 2.0 | 0.00 | 0.00 | 0.00 | 38 | 1013.2 |
| 20260503172421 | 60 | 239 | 0.0 | 0.0 | 0.00 | 0.00 | 0.00 | 37 | 1013.1 |
| 20260503171922 | 59 | 48 | 3.0 | 7.0 | 0.00 | 0.00 | 0.00 | 38 | 1013.0 |
| 20260503171421 | 59 | 347 | 3.0 | 2.0 | 0.00 | 0.00 | 0.00 | 38 | 1013.1 |
| 20260503170922 | 59 | 248 | 3.0 | 3.0 | 0.00 | 0.00 | 0.00 | 38 | 1013.1 |
| 20260503170424 | 59 | 107 | 2.0 | 1.0 | 0.00 | 0.00 | 0.00 | 40 | 1013.2 |
| 20260503150933 | 57 | 293 | 3.0 | 3.0 | 0.00 | 0.00 | 0.00 | 44 | 1013.7 |
| 20260503150435 | 56 | 345 | 2.0 | 1.0 | 0.00 | 0.00 | 0.00 | 43 | 1013.7 |
| 20260503130947 | 49 | 352 | 1.0 | 3.0 | 0.00 | 0.00 | 0.00 | 59 | 1013.5 |
| 20260503130448 | 49 | 262 | 2.0 | 3.0 | 0.00 | 0.00 | 0.00 | 59 | 1013.5 |
| 20260503110501 | 45 | 201 | 0.0 | 1.0 | 0.00 | 0.00 | 0.00 | 70 | 1012.5 |
| 20260503090512 | 41 | 124 | 0.0 | 0.0 | 0.00 | 0.00 | 0.00 | 76 | 1010.8 |
| 20260503081514 | 44 | 124 | 0.0 | 0.0 | 0.00 | 0.00 | 0.00 | 71 | 1010.5 |
| 20260503081015 | 44 | 124 | 0.0 | 0.0 | 0.00 | 0.00 | 0.00 | 70 | 1010.5 |
| 20260503080516 | 44 | 124 | 0.0 | 0.0 | 0.00 | 0.00 | 0.00 | 70 | 1010.5 |
| 20260503072519 | 47 | 124 | 0.0 | 0.0 | 0.00 | 0.00 | 0.00 | 67 | 1010.5 |
| 20260503072020 | 47 | 124 | 0.0 | 0.0 | 0.00 | 0.00 | 0.00 | 67 | 1010.5 |
| 20260503071519 | 47 | 124 | 0.0 | 0.0 | 0.00 | 0.00 | 0.00 | 67 | 1010.6 |
| 20260503071020 | 47 | 124 | 0.0 | 0.0 | 0.00 | 0.00 | 0.00 | 67 | 1010.6 |
| 20260503070521 | 47 | 124 | 0.0 | 0.0 | 0.00 | 0.00 | 0.00 | 67 | 1010.6 |
| 20260503055027 | 48 | 124 | 0.0 | 0.0 | 0.00 | 0.00 | 0.00 | 70 | 1010.7 |
| 20260503054526 | 48 | 124 | 0.0 | 0.0 | 0.00 | 0.00 | 0.00 | 71 | 1010.7 |
| 20260503054027 | 48 | 124 | 0.0 | 0.0 | 0.00 | 0.00 | 0.00 | 71 | 1010.8 |
| 20260503053528 | 48 | 124 | 0.0 | 0.0 | 0.00 | 0.00 | 0.00 | 72 | 1010.9 |
| 20260503053027 | 48 | 124 | 0.0 | 0.0 | 0.00 | 0.00 | 0.00 | 73 | 1011.0 |
| 20260503052528 | 48 | 124 | 0.0 | 0.0 | 0.00 | 0.00 | 0.00 | 73 | 1011.0 |
| 20260503052030 | 48 | 124 | 0.0 | 0.0 | 0.00 | 0.00 | 0.00 | 74 | 1010.8 |
| 20260503051528 | 48 | 124 | 0.0 | 0.0 | 0.00 | 0.00 | 0.00 | 75 | 1010.9 |
| 20260503051030 | 48 | 124 | 0.0 | 0.0 | 0.00 | 0.00 | 0.00 | 75 | 1010.9 |
| 20260503050531 | 48 | 124 | 0.0 | 0.0 | 0.00 | 0.00 | 0.00 | 76 | 1011.0 |
| 20260503050029 | 48 | 124 | 0.0 | 0.0 | 0.00 | 0.00 | 0.00 | 76 | 1011.0 |
| 20260503045531 | 48 | 124 | 0.0 | 0.0 | 0.00 | 0.00 | 0.00 | 77 | 1011.0 |
| 20260503045032 | 48 | 124 | 0.0 | 0.0 | 0.00 | 0.00 | 0.00 | 78 | 1011.1 |
| 20260503044531 | 48 | 124 | 0.0 | 0.0 | 0.00 | 0.00 | 0.00 | 79 | 1011.1 |
| 20260503044032 | 48 | 124 | 0.0 | 0.0 | 0.00 | 0.00 | 0.00 | 80 | 1011.2 |
| 20260503043533 | 47 | 124 | 0.0 | 0.0 | 0.00 | 0.00 | 0.00 | 81 | 1011.3 |
| 20260503043032 | 47 | 124 | 0.0 | 0.0 | 0.00 | 0.00 | 0.00 | 82 | 1011.4 |
| 20260503042533 | 47 | 124 | 0.0 | 0.0 | 0.00 | 0.00 | 0.00 | 83 | 1011.4 |
| 20260503042035 | 47 | 124 | 0.0 | 0.0 | 0.00 | 0.00 | 0.00 | 84 | 1011.5 |
| 20260503041533 | 47 | 124 | 0.0 | 0.0 | 0.00 | 0.00 | 0.00 | 85 | 1011.6 |
| 20260503041035 | 47 | 124 | 0.0 | 0.0 | 0.00 | 0.00 | 0.00 | 85 | 1011.6 |
| 20260503040537 | 47 | 124 | 0.0 | 0.0 | 0.00 | 0.00 | 0.00 | 86 | 1011.6 |
| 20260503040035 | 47 | 124 | 0.0 | 0.0 | 0.00 | 0.00 | 0.00 | 86 | 1011.6 |
| 20260503035536 | 47 | 124 | 0.0 | 0.0 | 0.00 | 0.01 | 0.00 | 87 | 1011.6 |
| 20260503035038 | 47 | 124 | 0.0 | 0.0 | 0.00 | 0.01 | 0.00 | 87 | 1011.3 |
| 20260503034536 | 47 | 124 | 0.0 | 0.0 | 0.00 | 0.01 | 0.00 | 87 | 1011.3 |
| 20260503034038 | 47 | 124 | 0.0 | 0.0 | 0.00 | 0.01 | 0.00 | 88 | 1011.3 |
| 20260503033539 | 47 | 124 | 0.0 | 0.0 | 0.00 | 0.01 | 0.00 | 88 | 1011.2 |
| 20260503033038 | 47 | 124 | 0.0 | 0.0 | 0.00 | 0.01 | 0.00 | 88 | 1011.3 |
| 20260503032539 | 48 | 124 | 0.0 | 0.0 | 0.00 | 0.01 | 0.00 | 88 | 1011.4 |
| 20260503032040 | 48 | 124 | 0.0 | 0.0 | 0.00 | 0.01 | 0.00 | 88 | 1011.4 |
| 20260503031539 | 48 | 124 | 0.0 | 0.0 | 0.00 | 0.01 | 0.00 | 88 | 1011.6 |
| 20260503031040 | 48 | 124 | 0.0 | 0.0 | 0.00 | 0.01 | 0.00 | 88 | 1011.6 |
| 20260503030542 | 48 | 124 | 0.0 | 0.0 | 0.00 | 0.01 | 0.00 | 88 | 1011.5 |
| 20260503030040 | 48 | 124 | 0.0 | 0.0 | 0.00 | 0.01 | 0.00 | 88 | 1011.5 |
| 20260503025542 | 48 | 124 | 0.0 | 0.0 | 0.00 | 0.01 | 0.00 | 88 | 1011.5 |
| 20260503025043 | 48 | 124 | 0.0 | 0.0 | 0.00 | 0.01 | 0.00 | 88 | 1011.5 |
| 20260503024542 | 48 | 124 | 0.0 | 0.0 | 0.00 | 0.01 | 0.00 | 87 | 1011.4 |
| 20260503024043 | 48 | 124 | 0.0 | 0.0 | 0.00 | 0.01 | 0.00 | 87 | 1011.3 |
| 20260503023545 | 48 | 124 | 0.0 | 0.0 | 0.00 | 0.01 | 0.00 | 87 | 1011.3 |
| 20260503023043 | 48 | 124 | 0.0 | 0.0 | 0.00 | 0.01 | 0.00 | 87 | 1011.3 |
| 20260503022544 | 48 | 124 | 0.0 | 0.0 | 0.00 | 0.01 | 0.00 | 87 | 1011.4 |
| 20260503022046 | 48 | 124 | 0.0 | 0.0 | 0.00 | 0.01 | 0.00 | 86 | 1011.3 |
| 20260503021545 | 48 | 124 | 0.0 | 0.0 | 0.00 | 0.01 | 0.00 | 86 | 1011.5 |
| 20260503021046 | 48 | 124 | 0.0 | 0.0 | 0.00 | 0.01 | 0.00 | 86 | 1011.7 |
| 20260503020547 | 48 | 124 | 0.0 | 0.0 | 0.00 | 0.01 | 0.00 | 86 | 1011.8 |
| 20260503020046 | 48 | 124 | 0.0 | 0.0 | 0.00 | 0.01 | 0.00 | 85 | 1011.7 |
| 20260503015547 | 48 | 124 | 0.0 | 0.0 | 0.00 | 0.01 | 0.00 | 85 | 1011.7 |
| 20260503015049 | 48 | 124 | 0.0 | 0.0 | 0.00 | 0.01 | 0.00 | 85 | 1011.4 |
| 20260503014548 | 48 | 124 | 0.0 | 0.0 | 0.00 | 0.01 | 0.00 | 84 | 1011.5 |
| 20260503014049 | 48 | 124 | 0.0 | 0.0 | 0.00 | 0.01 | 0.00 | 84 | 1011.6 |
| 20260503013550 | 48 | 124 | 0.0 | 0.0 | 0.00 | 0.01 | 0.00 | 83 | 1011.7 |
| 20260503013049 | 48 | 124 | 0.0 | 0.0 | 0.00 | 0.01 | 0.00 | 83 | 1011.8 |
| 20260503012551 | 49 | 124 | 0.0 | 0.0 | 0.00 | 0.01 | 0.00 | 82 | 1011.7 |
| 20260503012052 | 49 | 124 | 0.0 | 0.0 | 0.00 | 0.01 | 0.00 | 82 | 1011.7 |
| 20260503011551 | 49 | 124 | 0.0 | 0.0 | 0.00 | 0.01 | 0.00 | 81 | 1011.7 |
| 20260503011052 | 49 | 124 | 0.0 | 0.0 | 0.00 | 0.01 | 0.00 | 81 | 1011.6 |
| 20260503010554 | 50 | 124 | 0.0 | 0.0 | 0.00 | 0.01 | 0.00 | 81 | 1011.5 |
| 20260503010052 | 50 | 124 | 0.0 | 0.0 | 0.00 | 0.01 | 0.00 | 80 | 1011.5 |
| 20260503005554 | 50 | 124 | 0.0 | 0.0 | 0.00 | 0.01 | 0.00 | 80 | 1011.4 |
| 20260503005055 | 51 | 124 | 0.0 | 0.0 | 0.00 | 0.01 | 0.00 | 79 | 1011.3 |
| 20260503004554 | 51 | 124 | 0.0 | 0.0 | 0.00 | 0.01 | 0.00 | 79 | 1011.3 |